FW9540 Weather Reports


time (UTC)temp
C
wind
direction
speed
KPH
gust
KPH
rain 1hr
cm
rain 24hr
cm
rain mn
cm
humidity
%
barometer
mb
20260507085515 16 127 0.0 4.8 0.00 0.00 0.00 77 1011.2
20260507085016 16 162 0.0 4.8 0.00 0.00 0.00 79 1011.3
20260507084512 16 162 0.0 4.8 0.00 0.00 0.00 79 1011.3
20260507084009 16 89 0.0 4.8 0.00 0.00 0.00 79 1011.3
20260507083503 15 59 0.0 6.4 0.00 0.00 0.00 79 1011.3
20260507083007 15 59 0.0 6.4 0.00 0.00 0.00 80 1011.3
20260507081912 15 44 1.6 6.4 0.00 0.00 0.00 80 1011.3
20260507081343 15 44 0.0 4.8 0.00 0.00 0.00 80 1011.3
20260507080840 15 44 0.0 4.8 0.00 0.00 0.00 81 1011.3
20260507080337 15 44 0.0 6.4 0.00 0.00 0.00 80 1011.4
20260507075812 15 44 1.6 6.4 0.00 0.00 0.00 82 1011.3
20260507075245 15 44 0.0 4.8 0.00 0.00 0.00 84 1011.3
20260507074717 15 44 0.0 1.6 0.00 0.00 0.00 83 1011.3
20260507074215 14 44 0.0 1.6 0.00 0.00 0.00 83 1011.2
20260507073712 14 44 0.0 4.8 0.00 0.00 0.00 84 1011.2
20260507073148 13 44 0.0 4.8 0.00 0.00 0.00 86 1011.2
20260507072620 13 44 0.0 1.6 0.00 0.00 0.00 87 1011.3
20260507072055 13 44 0.0 1.6 0.00 0.00 0.00 87 1011.3
20260507071529 13 44 0.0 1.6 0.00 0.00 0.00 87 1011.3
20260507071005 13 44 0.0 1.6 0.00 0.00 0.00 88 1011.2
20260507070439 13 44 0.0 1.6 0.00 0.00 0.00 88 1011.2
20260507065934 12 44 0.0 3.2 0.00 0.00 0.00 89 1011.2
20260507065405 12 44 0.0 3.2 0.00 0.00 0.00 89 1011.1
20260507064309 12 44 0.0 1.6 0.00 0.00 0.00 90 1011.2
20260507063810 12 44 0.0 1.6 0.00 0.00 0.00 90 1011.2
20260507063242 12 44 0.0 0.0 0.00 0.00 0.00 90 1011.2
20260507062713 12 44 0.0 0.0 0.00 0.00 0.00 91 1011.2
20260507062147 12 44 0.0 1.6 0.00 0.00 0.00 91 1011.2
20260507061646 12 44 0.0 1.6 0.00 0.00 0.00 91 1011.1
20260507061118 12 44 0.0 3.2 0.00 0.00 0.00 91 1011.1
20260507060615 12 44 0.0 3.2 0.00 0.00 0.00 91 1011.2
20260507060113 12 44 0.0 1.6 0.00 0.00 0.00 92 1011.1
20260507055611 12 44 0.0 3.2 0.00 0.00 0.00 92 1011.1
20260507055046 11 44 0.0 3.2 0.00 0.00 0.00 92 1011.0
20260507054042 11 44 0.0 1.6 0.00 0.00 0.00 93 1010.9
20260507053514 11 44 0.0 1.6 0.00 0.00 0.00 92 1010.8
20260507053011 11 44 0.0 1.6 0.00 0.00 0.00 92 1010.8
20260507052446 11 44 0.0 1.6 0.00 0.00 0.00 92 1010.7
20260507051937 11 44 0.0 1.6 0.00 0.00 0.00 92 1010.8
20260507051434 11 44 0.0 1.6 0.00 0.00 0.00 92 1010.7
20260507050921 11 44 0.0 1.6 0.00 0.00 0.00 92 1010.7
20260507050419 10 44 0.0 1.6 0.00 0.00 0.00 92 1010.6
20260507045351 10 44 0.0 0.0 0.00 0.00 0.00 92 1010.5
20260507044848 10 44 0.0 1.6 0.00 0.00 0.00 92 1010.5
20260507044322 10 44 0.0 1.6 0.00 0.00 0.00 93 1010.4
20260507042724 10 44 0.0 0.0 0.00 0.00 0.00 93 1010.1
20260507042201 10 44 0.0 1.6 0.00 0.00 0.00 93 1010.0
20260507041657 10 44 0.0 1.6 0.00 0.00 0.00 93 1010.0
20260507041151 11 44 0.0 1.6 0.00 0.00 0.00 93 1010.0
20260507040648 11 44 0.0 0.0 0.00 0.00 0.00 93 1010.0
20260507040123 11 44 0.0 3.2 0.00 0.00 0.00 93 1010.0
20260507035115 11 44 0.0 1.6 0.00 0.00 0.00 93 1009.9
20260507034110 10 44 0.0 1.6 0.00 0.00 0.00 93 1009.9
20260507033530 10 44 0.0 1.6 0.00 0.00 0.00 93 1009.8
20260507033004 10 44 0.0 1.6 0.00 0.00 0.00 93 1009.8
20260507032437 10 44 0.0 1.6 0.00 0.00 0.00 93 1009.8
20260507030316 11 44 0.0 0.0 0.00 0.00 0.00 93 1009.8
20260507025815 11 44 0.0 0.0 0.00 0.00 0.00 93 1009.9
20260507024744 11 44 0.0 0.0 0.00 0.00 0.00 93 1009.9
20260507024239 11 44 0.0 1.6 0.00 0.00 0.00 93 1009.8
20260507023736 11 44 0.0 1.6 0.00 0.00 0.00 93 1009.8
20260507023234 11 44 0.0 1.6 0.00 0.00 0.00 93 1009.9
20260507022731 11 44 1.6 4.8 0.00 0.00 0.00 93 1009.9
20260507021217 11 44 0.0 0.0 0.00 0.00 0.00 93 1009.9
20260507020711 11 44 0.0 0.0 0.00 0.00 0.00 93 1009.9
20260507020143 11 44 0.0 0.0 0.00 0.00 0.00 93 1009.8
20260507015642 11 44 0.0 0.0 0.00 0.00 0.00 93 1009.8
20260507015114 11 44 0.0 0.0 0.00 0.00 0.00 93 1009.7
20260507014550 11 44 0.0 0.0 0.00 0.00 0.00 93 1009.7
20260507013456 11 44 0.0 0.0 0.00 0.00 0.00 93 1009.7
20260507012956 11 44 0.0 0.0 0.00 0.00 0.00 93 1009.6
20260507012430 11 44 0.0 0.0 0.00 0.00 0.00 93 1009.6
20260507011901 11 44 0.0 0.0 0.00 0.00 0.00 93 1009.6
20260507010834 11 44 0.0 0.0 0.00 0.00 0.00 93 1009.6
20260507010326 11 44 0.0 0.0 0.00 0.00 0.00 93 1009.6
20260507005759 11 44 0.0 0.0 0.00 0.00 0.00 93 1009.6
20260507005257 11 44 0.0 0.0 0.00 0.00 0.00 93 1009.6
20260507004758 11 44 0.0 0.0 0.00 0.00 0.00 93 1009.6
20260507004254 11 44 1.6 6.4 0.00 0.00 0.00 93 1009.5
20260507003733 12 44 1.6 6.4 0.00 0.00 0.00 93 1009.5
20260507003233 12 44 0.0 4.8 0.00 0.00 0.00 93 1009.5
20260507002706 12 44 0.0 0.0 0.00 0.00 0.00 93 1009.5
20260507002204 12 44 0.0 0.0 0.00 0.00 0.00 93 1009.5
20260507001659 12 44 0.0 1.6 0.00 0.00 0.00 93 1009.6
20260507001157 12 44 0.0 1.6 0.00 0.00 0.00 93 1009.6
20260507000632 12 44 0.0 0.0 0.00 0.00 0.00 94 1009.6
20260506235053 12 44 0.0 0.0 0.00 0.00 0.00 94 1009.7
20260506234552 12 44 0.0 0.0 0.00 0.00 0.00 94 1009.6
20260506234038 12 44 0.0 0.0 0.00 0.00 0.00 93 1009.6
20260506233539 12 44 0.0 0.0 0.00 0.00 0.00 93 1009.6
20260506232509 12 44 0.0 0.0 0.00 0.00 0.00 93 1009.7
20260506232006 12 44 0.0 0.0 0.00 0.00 0.00 93 1009.7
20260506231438 12 44 0.0 1.6 0.00 0.00 0.00 93 1009.7
20260506230936 12 44 0.0 1.6 0.00 0.00 0.00 93 1009.7
20260506230437 12 44 0.0 6.4 0.00 0.00 0.00 93 1009.7
20260506225924 12 44 0.0 6.4 0.00 0.00 0.00 93 1009.7
20260506225402 12 44 0.0 6.4 0.00 0.00 0.00 93 1009.9
20260506224852 12 36 0.0 3.2 0.00 0.00 0.00 93 1009.8
20260506224348 12 36 0.0 3.2 0.00 0.00 0.00 93 1009.7
20260506223821 12 36 0.0 1.6 0.00 0.00 0.00 93 1009.7
20260506223320 12 36 0.0 1.6 0.00 0.00 0.00 94 1009.6
20260506222751 12 36 0.0 1.6 0.00 0.00 0.00 94 1009.6
20260506222248 12 36 0.0 1.6 0.00 0.00 0.00 94 1009.6
20260506221723 12 36 0.0 0.0 0.00 0.00 0.00 94 1009.6
20260506221220 12 36 0.0 0.0 0.00 0.00 0.00 94 1009.5
20260506220127 12 36 0.0 4.8 0.00 0.00 0.00 93 1009.6
20260506215607 11 36 0.0 4.8 0.00 0.00 0.00 93 1009.6
20260506215053 11 36 0.0 1.6 0.00 0.00 0.00 93 1009.5
20260506214548 11 36 0.0 0.0 0.00 0.00 0.00 93 1009.5
20260506214045 11 36 0.0 3.2 0.00 0.00 0.00 93 1009.5
20260506213035 11 36 0.0 0.0 0.00 0.00 0.00 93 1009.4
20260506212506 11 36 0.0 0.0 0.00 0.00 0.00 93 1009.4
20260506212005 11 36 0.0 0.0 0.00 0.00 0.00 93 1009.4
20260506211500 11 36 0.0 0.0 0.00 0.00 0.00 93 1009.4
20260506210959 11 36 0.0 1.6 0.00 0.00 0.00 93 1009.4
20260506210445 11 36 0.0 1.6 0.00 0.00 0.00 93 1009.4
20260506205953 11 36 0.0 0.0 0.00 0.00 0.00 93 1009.4
20260506205426 11 36 0.0 0.0 0.00 0.00 0.00 92 1009.4
20260506204854 11 36 0.0 0.0 0.00 0.00 0.00 92 1009.3
20260506203824 11 36 0.0 1.6 0.00 0.00 0.00 92 1009.3
20260506203323 11 36 0.0 1.6 0.00 0.00 0.00 92 1009.3
20260506202757 11 36 0.0 1.6 0.00 0.00 0.00 92 1009.2
20260506201306 11 36 0.0 0.0 0.00 0.00 0.00 92 1009.3
20260506200144 11 36 0.0 0.0 0.00 0.00 0.00 92 1009.1
20260506195222 12 36 0.0 0.0 0.00 0.00 0.00 92 1009.0
20260506194708 12 36 0.0 0.0 0.00 0.00 0.00 92 1008.9
20260506194136 12 36 0.0 0.0 0.00 0.00 0.00 92 1008.9
20260506193648 12 36 0.0 1.6 0.00 0.00 0.00 92 1008.9
20260506192608 12 36 0.0 0.0 0.00 0.00 0.00 92 1008.8
20260506191439 12 36 0.0 0.0 0.00 0.00 0.00 91 1008.9
20260506190913 12 36 0.0 0.0 0.00 0.00 0.00 91 1008.9
20260506190505 12 36 0.0 0.0 0.00 0.00 0.00 91 1008.8
20260506185856 12 36 0.0 0.0 0.00 0.00 0.00 91 1008.8
20260506185340 12 36 0.0 3.2 0.00 0.00 0.00 91 1008.7
20260506184836 12 36 0.0 3.2 0.00 0.00 0.00 91 1008.6
20260506184334 13 36 0.0 1.6 0.00 0.00 0.00 91 1008.6
20260506183807 13 36 0.0 1.6 0.00 0.00 0.00 90 1008.5
20260506182737 13 36 0.0 0.0 0.00 0.00 0.00 90 1008.4
20260506182236 13 36 0.0 0.0 0.00 0.00 0.00 90 1008.4
20260506181705 13 36 0.0 1.6 0.00 0.00 0.00 90 1008.2
20260506181204 13 36 0.0 1.6 0.00 0.00 0.00 90 1008.2
20260506180637 13 36 0.0 1.6 0.00 0.00 0.00 89 1008.2
20260506180114 14 36 0.0 1.6 0.00 0.00 0.00 89 1008.2
20260506175543 14 36 0.0 0.0 0.00 0.00 0.00 88 1008.3
20260506175039 14 36 0.0 1.6 0.00 0.00 0.00 88 1008.2
20260506174514 15 36 0.0 0.0 0.00 0.00 0.00 88 1008.1
20260506173947 15 36 0.0 0.0 0.00 0.00 0.00 87 1008.1
20260506173418 15 36 0.0 0.0 0.00 0.00 0.00 87 1008.1
20260506172426 15 36 0.0 0.0 0.00 0.00 0.00 86 1007.9
20260506171913 15 36 0.0 1.6 0.00 0.00 0.00 86 1008.0
20260506171410 15 36 0.0 1.6 0.00 0.00 0.00 86 1007.9
20260506170859 15 36 0.0 1.6 0.00 0.00 0.00 86 1007.9
20260506170346 15 36 0.0 1.6 0.00 0.00 0.00 86 1007.8
20260506165845 15 36 0.0 1.6 0.00 0.00 0.00 87 1007.7
20260506165326 15 36 0.0 1.6 0.00 0.00 0.00 87 1007.7
20260506164836 15 36 0.0 0.0 0.00 0.00 0.00 88 1007.8
20260506164259 15 36 0.0 0.0 0.00 0.00 0.00 88 1007.7
20260506163730 15 36 0.0 0.0 0.00 0.00 0.00 88 1007.8
20260506163229 15 36 0.0 0.0 0.00 0.00 0.00 90 1007.8
20260506162700 14 36 0.0 0.0 0.00 0.00 0.00 89 1007.8
20260506162212 14 36 0.0 0.0 0.00 0.00 0.00 90 1007.9
20260506161644 14 36 0.0 0.0 0.00 0.00 0.00 90 1007.9
20260506161107 14 36 0.0 0.0 0.00 0.00 0.00 90 1008.0
20260506160540 14 36 0.0 0.0 0.00 0.00 0.00 90 1008.0
20260506160039 14 36 0.0 0.0 0.00 0.00 0.00 90 1007.8
20260506155510 14 36 0.0 0.0 0.00 0.00 0.00 90 1007.8
20260506154442 14 36 1.6 6.4 0.00 0.00 0.00 91 1007.6
20260506152854 13 36 1.6 4.8 0.00 0.00 0.00 91 1008.0
20260506151814 13 36 0.0 1.6 0.00 0.00 0.00 92 1008.0
20260506151305 13 36 0.0 1.6 0.00 0.00 0.00 92 1008.1
20260506150238 13 36 1.6 6.4 0.00 0.00 0.00 92 1008.1
20260506145710 13 36 1.6 6.4 0.00 0.00 0.00 91 1008.2
20260506145212 13 36 0.0 1.6 0.00 0.00 0.00 92 1008.3
20260506144705 13 36 0.0 3.2 0.00 0.00 0.00 92 1008.3
20260506144203 13 36 0.0 3.2 0.00 0.00 0.00 91 1008.2
20260506143653 13 36 0.0 0.0 0.00 0.00 0.00 91 1008.1
20260506143124 13 36 0.0 1.6 0.00 0.00 0.00 91 1008.1
20260506142536 13 36 0.0 1.6 0.00 0.00 0.00 91 1008.0
20260506141521 13 36 0.0 4.8 0.00 0.00 0.00 91 1007.9
20260506141007 13 36 0.0 4.8 0.00 0.00 0.00 91 1008.0
20260506140451 13 36 0.0 1.6 0.00 0.00 0.00 91 1008.1
20260506135936 13 36 0.0 3.2 0.00 0.00 0.00 91 1008.3
20260506134839 13 36 0.0 0.0 0.00 0.00 0.00 90 1008.2
20260506134338 13 36 0.0 1.6 0.00 0.00 0.00 90 1008.4
20260506132806 13 36 0.0 3.2 0.00 0.00 0.00 90 1008.4
20260506132317 14 35 0.0 3.2 0.00 0.00 0.00 90 1008.5
20260506131740 14 35 0.0 0.0 0.00 0.00 0.00 89 1008.4
20260506131220 14 35 0.0 0.0 0.00 0.00 0.00 89 1008.3
20260506130703 14 35 0.0 0.0 0.00 0.00 0.00 89 1008.3
20260506130201 14 35 0.0 0.0 0.00 0.00 0.00 88 1008.4
20260506125112 14 36 0.0 0.0 0.00 0.00 0.00 87 1008.5
20260506124610 14 36 0.0 0.0 0.00 0.00 0.00 85 1008.4
20260506124040 14 36 0.0 0.0 0.00 0.00 0.00 85 1008.5
20260506123014 15 36 0.0 1.6 0.00 0.00 0.00 85 1008.4
20260506122445 15 36 0.0 4.8 0.00 0.00 0.00 86 1008.3
20260506121942 15 36 0.0 4.8 0.00 0.00 0.00 85 1008.4
20260506120433 15 36 0.0 3.2 0.00 0.00 0.00 87 1008.4
20260506115933 15 36 0.0 3.2 0.00 0.00 0.00 87 1008.4
20260506115412 15 36 0.0 6.4 0.00 0.00 0.00 86 1008.6
20260506114842 15 30 0.0 6.4 0.00 0.00 0.00 87 1008.6
20260506113817 14 29 0.0 4.8 0.00 0.00 0.00 87 1008.8
20260506113248 14 29 0.0 6.4 0.00 0.00 0.00 88 1008.8
20260506112720 14 86 0.0 6.4 0.00 0.00 0.00 88 1008.8
20260506112219 14 50 0.0 3.2 0.00 0.00 0.00 89 1008.9
20260506111651 14 50 0.0 3.2 0.00 0.00 0.00 89 1008.9
20260506111151 14 36 1.6 4.8 0.00 0.00 0.00 89 1009.0
20260506110627 14 46 1.6 6.4 0.00 0.00 0.00 90 1009.0
20260506105607 13 199 0.0 0.0 0.00 0.00 0.00 91 1009.2
20260506105035 13 199 0.0 0.0 0.00 0.00 0.00 91 1009.3
20260506104506 13 199 0.0 0.0 0.00 0.00 0.00 91 1009.4
20260506104007 13 199 0.0 0.0 0.00 0.00 0.00 91 1009.4
20260506103443 13 199 0.0 1.6 0.00 0.00 0.00 91 1009.4
20260506102921 13 199 0.0 1.6 0.00 0.00 0.00 91 1009.4
20260506102417 13 195 0.0 0.0 0.00 0.00 0.00 91 1009.5
20260506101851 13 195 0.0 0.0 0.00 0.00 0.00 91 1009.5
20260506101348 13 195 0.0 0.0 0.00 0.00 0.00 91 1009.5
20260506100850 13 195 0.0 1.6 0.00 0.00 0.00 91 1009.4
20260506095843 13 196 0.0 0.0 0.00 0.00 0.00 92 1009.4
20260506095323 13 196 0.0 0.0 0.00 0.00 0.00 92 1009.4
20260506094823 13 196 0.0 0.0 0.00 0.00 0.00 92 1009.4
20260506093730 13 196 0.0 4.8 0.00 0.00 0.00 92 1009.4
20260506092703 13 197 0.0 4.8 0.00 0.00 0.00 93 1009.4
20260506092140 13 201 1.6 8.0 0.00 0.00 0.00 93 1009.4
20260506091639 12 201 1.6 8.0 0.00 0.00 0.00 93 1009.4
20260506091116 12 196 0.0 4.8 0.00 0.00 0.00 93 1009.4
20260506090616 12 184 0.0 4.8 0.00 0.00 0.00 93 1009.4
20260506090052 12 171 0.0 1.6 0.00 0.00 0.00 93 1009.4